EST,Max TemperatureF,Mean TemperatureF,Min TemperatureF,Max Dew PointF,MeanDew PointF,Min DewpointF,Max Humidity, Mean Humidity, Min Humidity, Max Sea Level PressureIn, Mean Sea Level PressureIn, Min Sea Level PressureIn, Max VisibilityMiles, Mean VisibilityMiles, Min VisibilityMiles, Max Wind SpeedMPH, Mean Wind SpeedMPH, Max Gust SpeedMPH,PrecipitationIn, CloudCover, Events, WindDirDegrees
2012-12-1,44,38,32,43,35,28,93,85,81,30.25,30.01,29.78,10,5,0,16,9,23,0.01,8,,165
2012-12-2,44,42,39,43,36,34,93,84,70,30.06,29.93,29.77,10,7,2,10,6,,0.00,8,,267
2012-12-3,55,47,39,54,42,34,100,88,76,30.07,29.82,29.58,10,4,0,17,9,28,0.04,8,,180
2012-12-4,46,36,24,43,24,9,87,60,41,30.24,29.94,29.69,10,10,10,18,11,26,0.04,1,,275
2012-12-5,35,28,24,25,18,14,74,64,55,30.44,30.34,30.20,10,10,10,13,9,18,0.00,6,,235
2012-12-6,41,37,35,36,32,27,87,77,70,30.19,29.93,29.79,10,10,7,22,14,32,0.00,8,,204
2012-12-7,35,32,26,30,23,19,87,71,60,30.03,29.96,29.84,10,10,10,7,4,,0.00,5,,324
2012-12-8,33,25,17,25,19,12,93,71,48,30.18,30.07,30.00,10,9,2,9,5,,0.00,4,,341
2012-12-9,30,22,15,27,20,10,93,81,69,30.23,30.06,29.80,10,6,0,16,6,26,0.00,6,,45
2012-12-10,30,26,21,23,19,16,86,76,64,29.91,29.80,29.72,10,9,2,13,7,20,0.00,7,,332
2012-12-11,28,22,17,19,17,12,93,74,55,29.98,29.87,29.79,10,10,4,17,6,26,0.00,8,,230
2012-12-12,39,24,8,30,17,3,92,74,59,30.21,30.11,29.99,10,10,9,18,8,30,0.00,5,,212
2012-12-13,55,34,28,28,24,21,86,64,52,30.10,30.04,29.98,10,10,10,18,11,29,0.00,6,,224
2012-12-14,32,28,24,27,24,21,86,78,69,30.26,30.19,30.11,10,10,8,10,3,,0.00,7,,59
2012-12-15,39,34,30,36,33,27,93,85,81,30.14,29.86,29.57,10,7,3,23,11,30,0.00,6,,114
2012-12-16,41,38,35,39,36,34,100,90,87,29.60,29.54,29.50,10,6,0,9,5,,0.00,8,,322
2012-12-17,37,34,30,34,27,25,87,78,70,29.69,29.65,29.60,10,10,10,9,6,,0.00,8,,294
2012-12-18,33,30,24,23,21,19,86,73,56,29.78,29.74,29.70,10,10,10,8,2,,0.00,7,,206
2012-12-19,35,27,19,27,21,16,93,78,60,30.06,29.96,29.79,10,10,7,9,4,,0.00,2,,251
2012-12-20,33,30,26,30,27,21,93,85,80,30.04,29.68,29.44,10,4,0,20,8,31,0.00,8,,23
2012-12-21,32,28,24,27,22,16,86,78,69,30.06,29.80,29.46,10,6,1,24,16,38,0.00,8,,333
2012-12-22,26,20,14,19,15,10,86,77,68,30.10,30.01,29.88,10,10,10,15,8,16,0.00,3,,271
2012-12-23,24,15,6,19,11,-2,100,72,58,30.06,29.99,29.89,10,10,8,15,8,21,0.00,5,,311
2012-12-24,24,15,6,19,12,-2,92,79,67,30.13,30.01,29.96,10,10,4,9,5,,0.00,7,,316
2012-12-25,26,14,5,14,10,-2,100,71,57,30.42,30.31,30.14,10,10,10,10,6,16,0.01,5,,330
2012-12-26,26,16,5,21,13,0,86,78,69,30.39,30.27,30.18,10,10,7,12,5,20,0.00,6,,358
2012-12-27,26,24,21,19,17,16,80,72,64,30.23,30.19,30.16,10,10,10,12,7,17,0.00,8,,340
2012-12-28,26,24,21,19,17,16,86,77,69,30.17,30.09,29.99,10,10,5,7,4,,0.00,8,,354
2012-12-29,28,24,19,19,17,16,86,76,64,30.05,29.98,29.93,10,10,5,7,5,,0.00,8,,326
2012-12-30,24,19,14,16,11,9,86,70,59,30.18,30.09,29.92,10,10,8,12,7,16,0.00,3,,242
2012-12-31,24,16,8,16,8,0,80,67,46,30.10,29.96,29.83,10,9,5,21,9,25,0.00,5,,284